Weather in Ust-Ozernaya

Russia / Zabaykalsky Krai     50°42′13″N   117°05′33″E
temp.,
°C
wind,
m/s
gust,
m/s
humid.,
%
clouds,
%
prec.,
mm/h
press.,
hPa
HPBL,
m
12 april, mon
mon1200:00−4nne4826100 0.0 1024560
03:00−5n373294 0.0 1024301
06:00−8n48455 0.0 1025233
09:00−7n674511 0.0 10271086
12:00−4nnw781910 0.0 10262199
15:00−3nnw81019100 0.0 10232803
18:00−3nnw61020100 0.0 10232806
21:00−6n22285 0.0 102415
13 april, tue
tue1300:00−8ssw00335 0.0 102410
03:00−9s11350 0.0 102310
06:00−10e11385 0.0 102210
09:00−5sse01255 0.0 1020337
12:00−1wnw45175 0.0 10162409
15:00+1wnw77141 0.0 10132504
18:00+1nnw79150 0.0 10122270
21:00−3se11220 0.0 101310
14 april, wed
wed1400:00−4ssw222510 0.0 101210
03:00−5ssw2227100 0.0 101017
06:00−5sw223348 0.0 100829
09:000nw7106432 0.0 1007837
12:00+4nw7942100 0.1 10052007
15:00+6nw7924100 0.1 10043090
18:00+6nnw5722100 0.0 10042530
21:00+2ne2231100 0.0 100625
15 april, thu
thu1500:00+1ene1135100 0.0 100611
03:000ne2239100 0.0 100521
06:00−1ene2442100 0.0 1004140
09:00+1ese3349100 0.0 10041068
12:00+2n1249100 0.2 10031367
15:00+2nw2248100 0.7 10021337
18:000nnw5784100 1.8 1004635
21:00−1n3886100 3.6 1006662
16 april, fri
fri1600:00−2e1187100 0.4 1006125
03:00−4n359591 0.7 1006135
06:00−4nnw3794100 0.0 1008219
09:00−2n7116739 0.0 10091104
12:00+1n9114656 0.0 10101900
15:00+3n91136100 0.0 10102660
18:00+3n7112873 0.0 10112834
21:00−1nw33430 0.0 101420